Flag for U.S.A. Weather past 2 weeks in Lakewood, Colorado, U.S.A.

Now
40 °F

Overcast.


Feels Like: 34 °F
Forecast: 32 / 61 °F
Wind: 9 mph from South

Location: Centennial Airport


UV Index: 5 (Moderate)

Visibility: 10 mi


Pressure: 30.08 "Hg

Humidity: 68%

Dew point: 30 °F

Location of LakewoodLocation

Historic Weather in Lakewood

°F

Lakewood temperature yesterday

Maximum temperature yesterday: 63 °F (at 3:53 PM)
Minimum temperature yesterday: 31 °F (at 4:53 AM)
Average temperature yesterday: 48 °F

Past Weeks' High & Low Weather Summary

 TemperatureHumidityPressure
High76 °F (Apr 11, 3:53 PM)100% (Apr 3, 2:53 AM)30.46 "Hg (Apr 3, 2:53 AM)
Low18 °F (Apr 14, 4:53 AM)7% (Apr 11, 4:53 PM)29.54 "Hg (Apr 12, 6:53 PM)
Average44 °F51%29.93 "Hg
* Reported Apr 1 8:53 PM — Apr 16 8:53 PM, Lakewood, Weather by CustomWeather, © 2014

Note: Actual official high and low records may vary slightly from our data, if they occured in-between our weather recording intervals... More about our weather records

Advertising

Historic Weather Conditions — Data for Previous 24 hours

 ConditionsComfort  
Time TempWeatherWind HumidityBarometerVisibility
8:53 PM
Apr 16
40 °FOvercast.9 mph68%30.08 "Hg10 mi
7:53 PM44 °FMostly cloudy.10 mph40%30.01 "Hg10 mi
6:53 PM45 °FCloudy.7 mph38%29.98 "Hg10 mi
5:53 PM47 °FMostly cloudy.13 mph34%29.98 "Hg10 mi
4:53 PM48 °FMostly cloudy.8 mph33%29.93 "Hg10 mi
3:53 PM49 °FCloudy.10 mph28%29.90 "Hg10 mi
2:53 PM49 °FBroken clouds.9 mph27%29.89 "Hg10 mi
1:53 PM50 °FBroken clouds.12 mph26%29.86 "Hg10 mi
12:53 PM52 °FBroken clouds.16 mph27%29.82 "Hg10 mi
11:53 AM50 °FBroken clouds.9 mph28%29.84 "Hg10 mi
10:53 AM48 °FScattered clouds.13 mph36%29.84 "Hg10 mi
9:53 AM48 °FPartly sunny.22 mph29%29.83 "Hg10 mi
8:53 AM44 °FPartly sunny.9 mph43%29.80 "Hg10 mi
7:53 AM46 °FBroken clouds.18 mph27%29.77 "Hg10 mi
6:53 AM42 °FPartly cloudy.12 mph36%29.75 "Hg10 mi
5:53 AM36 °FPassing clouds.No wind70%29.73 "Hg10 mi
4:53 AM38 °FPassing clouds.6 mph68%29.68 "Hg10 mi
3:53 AM39 °FClear.7 mph55%29.66 "Hg10 mi
2:53 AM39 °FClear.No wind43%29.62 "Hg10 mi
1:53 AM44 °FClear.3 mph32%29.59 "Hg10 mi
12:53 AM51 °FPassing clouds.17 mph22%29.57 "Hg10 mi
11:53 PM
Apr 15
47 °FPassing clouds.12 mph29%29.60 "Hg10 mi
10:53 PM50 °FPassing clouds.14 mph24%29.62 "Hg10 mi
Weather by CustomWeather, © 2014

See weather overview